H    8.9  G 0.15                    Peri.   48.36944 +/- 0.010
                                    Node   250.24871 +/- 0.00010
e   1.0015252 +/- 0.000167          Incl.  163.57303 +/- 0.00036
From 92 observations 2019 May 27-2020 Apr. 1; mean residual 0".36
Residuals in arcseconds: 
190527 F51  .03-  .11-    200324 L01  .74-  .51+    200326 850  .46+  .45-    
190527 F51  .06-  .13-    200324 L01  .33-  .43-    200326 F65  .04-  .14+    
190527 F51  .04-  .12-    200324 L01  .22-  .33+    200326 F65  .21+  .25-    
190527 F51  .09+  .10-    200324 I47  .57+  .13+    200326 F65  .57+  .61-    
190801 F51  .07-  .17+    200324 I47  .17+  .20-    200327 Q62  .21-  .28-    
190801 F51  .03-  .24+    200324 W88  .29-  .17-    200327 Q62  .14+  .14-    
190820 F51  .06+  .06+    200324 W88  .18+  .24-    200327 Q62  .93+  .37-    
190820 F51  .08+  .06+    200324 I47  .10+  .13-    200327 Q62  .87+  .54-    
190820 F51  .10+  .08+    200324 W88  .31-  .04+    200327 Q62  .51+  .13-    
190820 F51  .05+  .07+    200324 E94  .60-  .12+    200327 Q62  .74+  .09-    
190820 F51  .01+  .07+    200324 E94  .40-  .49-    200327 Q62  .32+  .44-    
200205 F51  .04+  .19-    200324 E94  .22-  .00     200327 Q62  .16+  .53-    
200205 F51  .07-  .19-    200324 E94  .60-  .39+    200328 I47  .14+  .05+    
200205 F51  .04+  .14-    200324 E94  .14-  .12-    200328 I47  .16-  .02-    
200205 F51  .04+  .35-    200324 E94  .35-  .08-    200330 W88  .10-  .24+    
200321 T05  .23+  .22+    200324 E94  .12+  .09-    200330 I47  .27+  .26+    
200321 T05  .30+  .51-    200324 E94  .55-  .20-    200330 W88  .46-  .10+    
200321 T05  .46-  .21-    200324 E94  .36-  .38+    200330 I47  .06-  .53-    
200321 T05  1.6+  .65-    200324 E94  .25+  .07+    200330 H36  .03+  .09-    
200322 F51  .11+  .20-    200324 E94  .14-  .49-    200330 H36  .50-  .11+    
200322 F51  .07-  .06-    200324 E94  .50-  .80+    200330 H36  .18-  .11+    
200322 F51  .24+  .19-    200324 Q11  .19-  .32+    200331 G40  .44+  .15-    
200322 F51  .04+  .16-    200324 Q11  .19+  .65+    200331 G40  .58-  .13-    
200323 I47  .06+  .12+    200324 Q11  .23+  .45+    200331 858  .05+  .15-    
200323 I47  .09-  .39-    200325 K74  .70-  .46+    200331 858  .26-  .01+    
200323 I47  .45+  .25-    200325 K74  .86-  .32+    200331 858  .27-  .10+    
200323 Q11  .26+  .03-    200325 K74  .87-  .37+    200401 118  .09+  .42-    
200323 Q11  .11-  .05+    200325 X02  .43-  .48-    200401 118  .16+  .12-    
200323 Q11  .14+  .20+    200325 X02  .07+  .23-    200401 J95  .27+  .15+    
200324 L01  .18+  .59+    200326 850  .14+  .68+    200401 J95  .04-  .16+    
200324 L01  .00   .45+    200326 850  1.1-  .37+    

Ephemerides (geocentric):
Date (UTC) HH   RA              Dec         delta   r     elong  mag " sig PA
---- -- -- --  -------------   -----------  ------ ------ -----  --- ---- ---
2020 04 01 21  16 24 59.099   -19 19 45.16  9.4324 10.034 124.6 19.2 4.2m 133
2020 04 01 22  16 24 58.095   -19 19 40.44  9.4316 10.034 124.7 19.2 4.3m 133
2020 04 01 23  16 24 57.090   -19 19 35.71  9.4309 10.034 124.7 19.2 4.3m 133
2020 04 02 00  16 24 56.084   -19 19 30.98  9.4302 10.034 124.8 19.2 4.3m 133
2020 04 02 01  16 24 55.078   -19 19 26.24  9.4295 10.034 124.8 19.2 4.4m 133
2020 04 02 02  16 24 54.070   -19 19 21.51  9.4287 10.034 124.9 19.2 4.4m 133
2020 04 02 03  16 24 53.062   -19 19 16.77  9.4280 10.034 124.9 19.2 4.5m 133
2020 04 02 04  16 24 52.053   -19 19 12.03  9.4273 10.034 125.0 19.2 4.5m 133
2020 04 02 05  16 24 51.044   -19 19 07.28  9.4265 10.033 125.0 19.2 4.5m 133
2020 04 02 06  16 24 50.033   -19 19 02.54  9.4258 10.033 125.1 19.2 4.6m 133
2020 04 02 07  16 24 49.022   -19 18 57.79  9.4251 10.033 125.1 19.2 4.6m 133
2020 04 02 08  16 24 48.010   -19 18 53.04  9.4244 10.033 125.1 19.2 4.7m 133
2020 04 02 09  16 24 46.997   -19 18 48.29  9.4236 10.033 125.2 19.2 4.7m 132
2020 04 02 10  16 24 45.984   -19 18 43.53  9.4229 10.033 125.2 19.2 4.7m 132
2020 04 02 11  16 24 44.970   -19 18 38.77  9.4222 10.033 125.3 19.2 4.8m 132
2020 04 02 12  16 24 43.955   -19 18 34.02  9.4215 10.033 125.3 19.2 4.8m 132
2020 04 02 13  16 24 42.939   -19 18 29.25  9.4207 10.033 125.4 19.2 4.9m 132
2020 04 02 14  16 24 41.922   -19 18 24.49  9.4200 10.032 125.4 19.2 4.9m 132
2020 04 02 15  16 24 40.905   -19 18 19.72  9.4193 10.032 125.5 19.2 4.9m 132
2020 04 02 16  16 24 39.886   -19 18 14.96  9.4186 10.032 125.5 19.2 5.0m 132
2020 04 02 17  16 24 38.867   -19 18 10.18  9.4178 10.032 125.6 19.2 5.0m 132
2020 04 02 18  16 24 37.848   -19 18 05.41  9.4171 10.032 125.6 19.2 5.1m 132
2020 04 02 19  16 24 36.827   -19 18 00.64  9.4164 10.032 125.6 19.2 5.1m 132
2020 04 02 20  16 24 35.806   -19 17 55.86  9.4157 10.032 125.7 19.2 5.1m 132
2020 04 02 21  16 24 34.784   -19 17 51.08  9.4149 10.032 125.7 19.2 5.2m 132
2020 04 02 22  16 24 33.761   -19 17 46.30  9.4142 10.032 125.8 19.2 5.2m 132
2020 04 02 23  16 24 32.737   -19 17 41.51  9.4135 10.031 125.8 19.2 5.3m 132
2020 04 03 00  16 24 31.713   -19 17 36.73  9.4128 10.031 125.9 19.2 5.3m 131
2020 04 03 01  16 24 30.688   -19 17 31.94  9.4121 10.031 125.9 19.2 5.3m 131
2020 04 03 02  16 24 29.662   -19 17 27.15  9.4113 10.031 126.0 19.2 5.4m 131
2020 04 03 03  16 24 28.635   -19 17 22.35  9.4106 10.031 126.0 19.2 5.4m 131
2020 04 03 04  16 24 27.607   -19 17 17.56  9.4099 10.031 126.0 19.2 5.5m 131
2020 04 03 05  16 24 26.579   -19 17 12.76  9.4092 10.031 126.1 19.2 5.5m 131
2020 04 03 06  16 24 25.550   -19 17 07.96  9.4085 10.031 126.1 19.2 5.6m 131
2020 04 03 07  16 24 24.520   -19 17 03.16  9.4077 10.031 126.2 19.2 5.6m 131
2020 04 03 08  16 24 23.490   -19 16 58.35  9.4070 10.030 126.2 19.2 5.6m 131
2020 04 03 09  16 24 22.458   -19 16 53.54  9.4063 10.030 126.3 19.2 5.7m 131
2020 04 03 10  16 24 21.426   -19 16 48.73  9.4056 10.030 126.3 19.2 5.7m 131
2020 04 03 11  16 24 20.393   -19 16 43.92  9.4049 10.030 126.4 19.2 5.8m 131
2020 04 03 12  16 24 19.360   -19 16 39.11  9.4042 10.030 126.4 19.2 5.8m 131
2020 04 03 13  16 24 18.325   -19 16 34.29  9.4034 10.030 126.5 19.2 5.8m 131
2020 04 03 14  16 24 17.290   -19 16 29.47  9.4027 10.030 126.5 19.2 5.9m 131
2020 04 03 15  16 24 16.254   -19 16 24.65  9.4020 10.030 126.5 19.2 5.9m 131
2020 04 03 16  16 24 15.217   -19 16 19.83  9.4013 10.030 126.6 19.2 6.0m 131
2020 04 03 17  16 24 14.180   -19 16 15.00  9.4006 10.029 126.6 19.2 6.0m 130
2020 04 03 18  16 24 13.141   -19 16 10.18  9.3999 10.029 126.7 19.2 6.1m 130
2020 04 03 19  16 24 12.102   -19 16 05.35  9.3991 10.029 126.7 19.2 6.1m 130
2020 04 03 20  16 24 11.062   -19 16 00.51  9.3984 10.029 126.8 19.2 6.1m 130